contact:dominique.lefevre@mio.osupytheas.fr, maurice.libes@osupytheas.fr, didier.mallarino@osupytheas.fr
Project:EMSO http://www.emso-fr.org/EMSO-France
Depth: 2436.0 m
Title:EMSO Ligure Ouest : Data MII capteur AQUADOPP
Date,Latitude,Longitude,X_East,Y_North,Z_Up,Amplitude_X,Amplitude_Y,Amplitude_Z,Batterie,SoundSpeed,Heading,Pitch,Roll,Pressure,TIS,Speed,Direction
, degrees North, degrees East, m.s-1, m.s-1,m.s-1, 1, 1, 1, Volt, m.s-1, degree, degree, degree, dbar, degree_C, m.s-1, degree
2019-12-16T00:04:03,42.805,6.029,0.002,-0.01,0.004,108.0,109.0,104.0,13.4,1505.3,326.0,-0.8,1.8,2470.326,13.31,0.01,168.7
2019-12-16T00:07:03,42.805,6.029,0.003,-0.024,-0.031,106.0,110.0,104.0,13.3,1505.3,327.1,-0.7,1.8,2470.303,13.31,0.024,172.9
2019-12-16T00:10:03,42.805,6.029,-0.006,-0.029,-0.031,109.0,111.0,103.0,13.3,1505.3,327.4,-0.7,1.9,2470.266,13.32,0.029,191.7
2019-12-16T00:13:03,42.805,6.029,0.035,-0.026,0.01,108.0,111.0,104.0,13.4,1505.3,326.3,-0.7,1.8,2470.288,13.32,0.043,126.6
2019-12-16T00:16:03,42.805,6.029,0.002,-0.032,-0.029,108.0,111.0,104.0,13.3,1505.3,324.8,-0.7,1.8,2470.288,13.32,0.032,176.4
2019-12-16T00:19:03,42.805,6.029,-0.011,-0.023,-0.014,107.0,110.0,104.0,13.4,1505.3,325.3,-0.7,1.8,2470.216,13.32,0.025,205.6
2019-12-16T00:22:03,42.805,6.029,0.005,-0.021,-0.029,108.0,110.0,103.0,13.4,1505.3,325.2,-0.7,1.9,2470.238,13.33,0.021,166.6
2019-12-16T00:25:03,42.805,6.029,0.009,-0.035,0.009,109.0,110.0,104.0,13.3,1505.3,326.3,-0.7,1.8,2470.276,13.33,0.036,165.6
2019-12-16T00:28:03,42.805,6.029,0.011,-0.013,-0.021,108.0,110.0,102.0,13.4,1505.3,326.6,-0.7,1.9,2470.267,13.33,0.017,139.8
2019-12-16T00:31:03,42.805,6.029,0.034,-0.028,-0.012,108.0,110.0,104.0,13.3,1505.3,327.4,-0.7,1.8,2470.229,13.33,0.044,129.5
2019-12-16T00:34:03,42.805,6.029,0.028,-0.021,-0.001,108.0,110.0,104.0,13.4,1505.3,328.2,-0.7,1.8,2470.213,13.33,0.035,126.9
2019-12-16T00:37:03,42.805,6.029,0.017,-0.01,0.004,108.0,109.0,103.0,13.4,1505.3,328.6,-0.7,1.8,2470.256,13.33,0.019,120.5
2019-12-16T00:40:03,42.805,6.029,0.03,-0.036,-0.017,108.0,109.0,104.0,13.4,1505.3,324.5,-0.7,1.8,2470.281,13.33,0.046,140.2
2019-12-16T00:43:03,42.805,6.029,0.017,-0.022,-0.024,109.0,109.0,104.0,13.4,1505.3,324.3,-0.7,1.9,2470.225,13.33,0.027,142.3
2019-12-16T00:46:03,42.805,6.029,0.034,-0.017,0.022,109.0,110.0,104.0,13.4,1505.3,326.8,-0.7,1.8,2470.262,13.33,0.038,116.6
2019-12-16T00:49:03,42.805,6.029,0.006,-0.016,0.008,109.0,109.0,106.0,13.4,1505.3,327.0,-0.7,1.8,2470.231,13.33,0.017,159.4
2019-12-16T00:52:03,42.805,6.029,-0.006,-0.023,-0.037,108.0,108.0,105.0,13.4,1505.3,327.9,-0.7,1.8,2470.234,13.33,0.023,194.6
2019-12-16T00:55:03,42.805,6.029,-0.012,-0.017,-0.008,108.0,110.0,104.0,13.4,1505.3,323.5,-0.7,1.8,2470.162,13.33,0.02,215.2
2019-12-16T00:58:03,42.805,6.029,0.004,-0.024,-0.018,108.0,110.0,103.0,13.3,1505.3,325.6,-0.7,1.8,2470.225,13.33,0.024,170.5
2019-12-16T01:04:03,42.805,6.029,0.02,-0.033,0.004,112.0,112.0,106.0,13.4,1505.3,325.5,-0.7,1.8,2470.228,13.31,0.038,148.8
2019-12-16T01:07:02,42.805,6.029,0.037,-0.038,-0.057,109.0,111.0,105.0,13.3,1505.3,327.2,-0.7,1.8,2470.223,13.31,0.053,135.8
2019-12-16T01:10:03,42.805,6.029,0.031,-0.025,-0.009,109.0,108.0,103.0,13.4,1505.3,326.6,-0.7,1.9,2470.209,13.32,0.039,128.9
2019-12-16T01:13:03,42.805,6.029,0.014,-0.028,0.019,108.0,110.0,104.0,13.3,1505.3,326.1,-0.7,1.9,2470.226,13.32,0.031,153.4
2019-12-16T01:16:03,42.805,6.029,0.028,-0.018,-0.017,110.0,110.0,105.0,13.4,1505.3,325.3,-0.7,1.9,2470.236,13.32,0.033,122.7
2019-12-16T01:19:03,42.805,6.029,0.021,-0.027,0.003,110.0,112.0,105.0,13.3,1505.3,325.2,-0.7,1.8,2470.208,13.32,0.034,142.1
2019-12-16T01:22:03,42.805,6.029,-0.007,-0.017,0.006,110.0,109.0,104.0,13.3,1505.3,325.3,-0.7,1.8,2470.186,13.32,0.018,202.4
2019-12-16T01:25:03,42.805,6.029,0.012,-0.036,0.037,109.0,110.0,104.0,13.4,1505.3,326.2,-0.7,1.8,2470.234,13.32,0.037,161.6
2019-12-16T01:28:03,42.805,6.029,0.0,-0.03,-0.035,110.0,111.0,107.0,13.4,1505.3,327.0,-0.7,1.8,2470.192,13.32,0.03,180.0
2019-12-16T01:31:03,42.805,6.029,0.019,-0.021,-0.02,109.0,110.0,104.0,13.3,1505.3,326.1,-0.7,1.9,2470.202,13.33,0.028,137.9
2019-12-16T01:34:03,42.805,6.029,0.027,-0.013,-0.032,109.0,110.0,105.0,13.4,1505.3,326.9,-0.7,1.8,2470.183,13.33,0.029,115.7
2019-12-16T01:37:03,42.805,6.029,0.027,-0.025,0.018,109.0,111.0,106.0,13.3,1505.3,323.8,-0.7,1.8,2470.235,13.33,0.036,132.8
2019-12-16T01:40:03,42.805,6.029,0.028,-0.019,-0.04,109.0,111.0,103.0,13.4,1505.3,325.9,-0.7,1.8,2470.2,13.33,0.033,124.2
2019-12-16T01:43:03,42.805,6.029,0.015,-0.027,0.007,109.0,111.0,105.0,13.3,1505.3,323.4,-0.7,1.8,2470.189,13.33,0.03,150.9
2019-12-16T01:46:03,42.805,6.029,0.004,-0.024,0.0,109.0,111.0,105.0,13.4,1505.3,324.0,-0.7,1.9,2470.191,13.33,0.024,170.5
2019-12-16T01:49:03,42.805,6.029,0.012,-0.016,0.0,110.0,111.0,105.0,13.4,1505.3,328.4,-0.7,1.8,2470.183,13.33,0.02,143.1
2019-12-16T01:52:03,42.805,6.029,0.011,-0.004,-0.003,109.0,110.0,104.0,13.4,1505.3,324.9,-0.7,1.8,2470.191,13.33,0.011,110.0
2019-12-16T01:55:03,42.805,6.029,-0.006,-0.032,-0.007,108.0,110.0,104.0,13.4,1505.3,325.5,-0.7,1.8,2470.165,13.33,0.032,190.6
2019-12-16T01:58:03,42.805,6.029,0.007,-0.024,-0.016,110.0,109.0,105.0,13.4,1505.3,324.8,-0.7,1.9,2470.187,13.33,0.025,163.7
2019-12-16T02:04:03,42.805,6.029,0.018,-0.03,0.007,108.0,110.0,105.0,13.4,1505.3,324.6,-0.7,1.8,2470.207,13.31,0.034,149.0
2019-12-16T02:07:03,42.805,6.029,0.0,-0.027,0.003,109.0,112.0,104.0,13.4,1505.3,326.0,-0.7,1.8,2470.321,13.31,0.026,180.0
2019-12-16T02:10:03,42.805,6.029,0.003,-0.028,-0.019,110.0,109.0,104.0,13.4,1505.3,323.5,-0.7,1.8,2470.231,13.32,0.028,173.9
2019-12-16T02:13:03,42.805,6.029,0.0,-0.028,-0.013,109.0,110.0,106.0,13.3,1505.3,325.2,-0.7,1.8,2470.196,13.32,0.028,180.0
2019-12-16T02:16:03,42.805,6.029,0.001,-0.033,-0.037,109.0,110.0,103.0,13.4,1505.3,325.3,-0.7,1.8,2470.183,13.32,0.033,178.3
2019-12-16T02:19:03,42.805,6.029,0.005,-0.041,-0.002,109.0,111.0,104.0,13.4,1505.3,324.5,-0.7,1.9,2470.223,13.32,0.041,173.0
2019-12-16T02:22:03,42.805,6.029,0.024,-0.038,-0.001,110.0,110.0,105.0,13.4,1505.3,326.0,-0.7,1.8,2470.17,13.32,0.044,147.7
2019-12-16T02:25:03,42.805,6.029,0.001,-0.043,-0.008,110.0,111.0,103.0,13.3,1505.3,326.7,-0.7,1.8,2470.177,13.32,0.043,178.7
2019-12-16T02:28:03,42.805,6.029,0.021,-0.017,-0.011,109.0,111.0,105.0,13.4,1505.3,324.1,-0.7,1.9,2470.163,13.33,0.027,129.0
2019-12-16T02:31:03,42.805,6.029,0.042,-0.021,0.003,110.0,111.0,104.0,13.4,1505.3,325.0,-0.7,1.8,2470.163,13.33,0.046,116.6
2019-12-16T02:34:03,42.805,6.029,0.005,-0.028,0.008,110.0,112.0,105.0,13.3,1505.3,326.2,-0.7,1.9,2470.157,13.32,0.028,169.9
2019-12-16T02:37:03,42.805,6.029,0.007,-0.04,0.001,110.0,111.0,105.0,13.3,1505.3,326.3,-0.7,1.8,2470.201,13.33,0.04,170.1
2019-12-16T02:40:03,42.805,6.029,0.005,-0.029,-0.039,108.0,110.0,104.0,13.4,1505.3,326.6,-0.7,1.8,2470.142,13.33,0.029,170.2
2019-12-16T02:43:03,42.805,6.029,0.005,-0.011,0.0,112.0,111.0,105.0,13.3,1505.3,324.5,-0.7,1.9,2470.152,13.33,0.012,155.6
2019-12-16T02:46:03,42.805,6.029,0.012,-0.023,0.017,111.0,109.0,105.0,13.4,1505.3,328.0,-0.7,1.8,2470.149,13.33,0.025,152.4
2019-12-16T02:49:03,42.805,6.029,0.005,0.0,0.0,109.0,111.0,104.0,13.4,1505.3,327.2,-0.7,1.8,2470.186,13.32,0.005,90.0
2019-12-16T02:52:03,42.805,6.029,0.01,-0.022,0.029,108.0,111.0,105.0,13.4,1505.3,327.8,-0.7,1.8,2470.221,13.32,0.024,155.6
2019-12-16T02:55:03,42.805,6.029,0.0,-0.023,-0.008,109.0,111.0,105.0,13.4,1505.3,326.3,-0.7,1.8,2470.187,13.32,0.023,180.0
2019-12-16T02:58:03,42.805,6.029,0.014,-0.029,-0.009,109.0,110.0,105.0,13.4,1505.3,325.0,-0.7,1.9,2470.175,13.32,0.032,154.2
2019-12-16T03:04:03,42.805,6.029,0.015,-0.016,-0.025,109.0,110.0,104.0,13.3,1505.3,324.3,-0.8,1.9,2470.2,13.31,0.021,136.9
2019-12-16T03:07:03,42.805,6.029,0.035,-0.033,0.011,110.0,109.0,106.0,13.4,1505.3,325.8,-0.7,1.8,2470.18,13.31,0.048,133.3
2019-12-16T03:10:03,42.805,6.029,0.006,-0.035,0.003,109.0,111.0,105.0,13.4,1505.3,323.2,-0.8,1.8,2470.212,13.32,0.035,170.3
2019-12-16T03:13:03,42.805,6.029,0.029,-0.031,-0.017,111.0,109.0,105.0,13.4,1505.3,325.5,-0.7,1.8,2470.213,13.32,0.042,136.9
2019-12-16T03:16:03,42.805,6.029,0.046,-0.036,-0.004,110.0,109.0,105.0,13.4,1505.3,324.7,-0.7,1.9,2470.165,13.32,0.058,128.0
2019-12-16T03:19:03,42.805,6.029,0.007,-0.025,-0.031,110.0,109.0,104.0,13.4,1505.3,326.4,-0.7,1.8,2470.153,13.32,0.025,164.4
2019-12-16T03:22:03,42.805,6.029,0.029,-0.028,0.025,110.0,111.0,104.0,13.4,1505.3,327.7,-0.7,1.8,2470.184,13.32,0.04,134.0
2019-12-16T03:25:03,42.805,6.029,0.021,-0.035,-0.01,110.0,110.0,105.0,13.4,1505.3,324.9,-0.7,1.8,2470.179,13.32,0.04,149.0
2019-12-16T03:28:03,42.805,6.029,0.036,-0.036,0.003,108.0,111.0,105.0,13.3,1505.3,325.0,-0.7,1.8,2470.181,13.32,0.05,135.0
2019-12-16T03:31:03,42.805,6.029,0.006,-0.05,0.005,111.0,109.0,105.0,13.4,1505.3,324.2,-0.7,1.8,2470.158,13.32,0.05,173.2
2019-12-16T03:34:03,42.805,6.029,0.008,-0.012,-0.024,109.0,111.0,107.0,13.4,1505.3,325.4,-0.7,1.8,2470.174,13.32,0.014,146.3
2019-12-16T03:37:03,42.805,6.029,0.032,-0.015,-0.035,109.0,112.0,105.0,13.3,1505.3,327.0,-0.8,1.8,2470.206,13.32,0.035,115.1
2019-12-16T03:40:03,42.805,6.029,0.018,-0.033,-0.016,109.0,111.0,106.0,13.4,1505.3,327.0,-0.7,1.8,2470.204,13.32,0.037,151.4
2019-12-16T03:43:03,42.805,6.029,0.009,-0.052,-0.03,110.0,109.0,105.0,13.4,1505.3,323.5,-0.7,1.8,2470.171,13.32,0.052,170.2
2019-12-16T03:46:03,42.805,6.029,0.015,-0.031,-0.023,111.0,109.0,105.0,13.4,1505.3,328.2,-0.7,1.8,2470.182,13.32,0.034,154.2
2019-12-16T03:49:03,42.805,6.029,0.01,-0.037,-0.022,111.0,110.0,105.0,13.4,1505.3,324.9,-0.7,1.8,2470.119,13.32,0.038,164.9
2019-12-16T03:52:03,42.805,6.029,-0.004,-0.027,-0.005,109.0,111.0,107.0,13.4,1505.3,323.4,-0.7,1.9,2470.174,13.32,0.027,188.4
2019-12-16T03:55:03,42.805,6.029,0.019,-0.026,-0.012,110.0,111.0,104.0,13.3,1505.3,326.4,-0.7,1.8,2470.202,13.32,0.032,143.8
2019-12-16T03:58:03,42.805,6.029,-0.008,-0.031,-0.071,109.0,109.0,104.0,13.4,1505.3,326.1,-0.7,1.9,2470.197,13.32,0.032,194.5
2019-12-16T04:04:03,42.805,6.029,0.001,-0.024,0.015,109.0,108.0,104.0,13.4,1505.2,325.7,-0.7,1.8,2470.203,13.3,0.024,177.6
2019-12-16T04:07:03,42.805,6.029,0.006,-0.031,0.012,109.0,111.0,106.0,13.4,1505.3,324.1,-0.7,1.8,2470.157,13.31,0.031,169.0
2019-12-16T04:10:03,42.805,6.029,0.011,-0.037,-0.011,110.0,110.0,104.0,13.4,1505.3,326.9,-0.7,1.8,2470.195,13.32,0.038,163.4
2019-12-16T04:13:03,42.805,6.029,0.006,-0.028,0.004,110.0,110.0,105.0,13.3,1505.3,328.5,-0.7,1.8,2470.161,13.32,0.028,167.9
2019-12-16T04:16:03,42.805,6.029,-0.013,-0.048,-0.009,109.0,109.0,103.0,13.4,1505.3,328.1,-0.7,1.8,2470.186,13.32,0.049,195.2
2019-12-16T04:19:03,42.805,6.029,0.002,-0.036,-0.016,108.0,108.0,104.0,13.4,1505.3,327.1,-0.7,1.8,2470.198,13.32,0.036,176.8
2019-12-16T04:22:03,42.805,6.029,-0.014,-0.033,-0.032,107.0,109.0,104.0,13.4,1505.3,323.6,-0.7,1.8,2470.179,13.32,0.035,203.0
2019-12-16T04:25:03,42.805,6.029,-0.015,-0.017,0.007,108.0,109.0,104.0,13.4,1505.3,325.2,-0.7,1.9,2470.169,13.32,0.022,221.4
2019-12-16T04:28:03,42.805,6.029,0.007,-0.032,-0.034,109.0,109.0,104.0,13.4,1505.3,326.9,-0.7,1.8,2470.179,13.32,0.032,167.7
2019-12-16T04:31:03,42.805,6.029,-0.001,-0.042,-0.004,108.0,109.0,103.0,13.3,1505.3,326.2,-0.7,1.8,2470.171,13.32,0.042,181.4
2019-12-16T04:34:03,42.805,6.029,0.031,-0.034,0.009,109.0,109.0,104.0,13.4,1505.3,323.4,-0.7,1.9,2470.163,13.32,0.046,137.6
2019-12-16T04:37:03,42.805,6.029,0.014,-0.056,-0.041,107.0,110.0,104.0,13.4,1505.3,326.0,-0.7,1.9,2470.212,13.32,0.057,166.0
2019-12-16T04:40:03,42.805,6.029,-0.001,-0.016,-0.032,108.0,108.0,102.0,13.4,1505.3,325.0,-0.7,1.8,2470.171,13.32,0.016,183.6
2019-12-16T04:43:03,42.805,6.029,0.011,-0.023,-0.003,108.0,109.0,103.0,13.4,1505.3,323.1,-0.7,1.9,2470.154,13.32,0.025,154.4
2019-12-16T04:46:03,42.805,6.029,0.018,-0.033,-0.033,108.0,108.0,103.0,13.4,1505.3,325.2,-0.7,1.9,2470.158,13.32,0.037,151.4
2019-12-16T04:49:03,42.805,6.029,0.017,-0.021,0.015,109.0,107.0,104.0,13.4,1505.3,324.3,-0.7,1.9,2470.184,13.32,0.027,141.0
2019-12-16T04:52:03,42.805,6.029,0.035,-0.054,-0.022,108.0,108.0,104.0,13.3,1505.3,327.0,-0.7,1.9,2470.193,13.32,0.064,147.0
2019-12-16T04:55:03,42.805,6.029,0.0,-0.039,-0.054,108.0,108.0,103.0,13.4,1505.3,324.9,-0.7,1.8,2470.179,13.32,0.039,180.0
2019-12-16T04:58:03,42.805,6.029,-0.015,-0.033,-0.05,108.0,110.0,104.0,13.3,1505.3,327.1,-0.7,1.8,2470.184,13.32,0.036,204.4
2019-12-16T05:04:03,42.805,6.029,-0.002,-0.035,-0.02,108.0,109.0,104.0,13.3,1505.2,324.0,-0.7,1.9,2470.242,13.3,0.035,183.3
2019-12-16T05:07:03,42.805,6.029,-0.005,-0.047,-0.008,108.0,108.0,105.0,13.4,1505.3,325.3,-0.7,1.8,2470.207,13.31,0.047,186.1
2019-12-16T05:10:03,42.805,6.029,0.005,-0.034,-0.019,108.0,108.0,103.0,13.4,1505.3,324.0,-0.7,1.8,2470.169,13.32,0.034,171.6
2019-12-16T05:13:03,42.805,6.029,0.01,-0.03,-0.007,107.0,106.0,103.0,13.3,1505.3,323.7,-0.7,1.8,2470.198,13.32,0.031,161.6
2019-12-16T05:16:03,42.805,6.029,0.012,-0.042,-0.008,107.0,107.0,106.0,13.4,1505.3,324.3,-0.7,1.8,2470.219,13.32,0.043,164.1
2019-12-16T05:19:03,42.805,6.029,-0.024,-0.032,-0.016,107.0,108.0,103.0,13.3,1505.3,326.8,-0.7,1.8,2470.201,13.32,0.04,216.9
2019-12-16T05:22:03,42.805,6.029,0.0,-0.039,-0.031,107.0,108.0,104.0,13.4,1505.3,327.4,-0.7,1.8,2470.237,13.32,0.039,180.0
2019-12-16T05:25:03,42.805,6.029,0.001,-0.048,-0.01,108.0,109.0,103.0,13.4,1505.3,324.3,-0.7,1.9,2470.202,13.32,0.048,178.8
2019-12-16T05:28:03,42.805,6.029,-0.009,-0.029,-0.017,107.0,108.0,105.0,13.4,1505.3,322.9,-0.7,1.8,2470.208,13.32,0.03,197.2
2019-12-16T05:31:03,42.805,6.029,-0.017,-0.056,-0.011,106.0,107.0,103.0,13.4,1505.3,323.7,-0.7,1.8,2470.199,13.32,0.058,196.9
2019-12-16T05:34:03,42.805,6.029,0.009,-0.038,-0.037,106.0,110.0,105.0,13.4,1505.3,325.8,-0.7,1.8,2470.207,13.32,0.039,166.7
2019-12-16T05:37:03,42.805,6.029,0.021,-0.021,-0.011,107.0,108.0,103.0,13.4,1505.3,324.1,-0.7,1.9,2470.223,13.32,0.029,135.0
2019-12-16T05:40:03,42.805,6.029,-0.036,-0.019,-0.067,107.0,107.0,104.0,13.4,1505.3,326.4,-0.7,1.8,2470.205,13.32,0.04,242.2
2019-12-16T05:43:03,42.805,6.029,0.0,-0.034,-0.039,107.0,108.0,103.0,13.4,1505.3,323.8,-0.7,1.8,2470.22,13.32,0.034,180.0
2019-12-16T05:46:03,42.805,6.029,0.008,-0.014,0.006,107.0,107.0,103.0,13.4,1505.3,326.1,-0.7,1.9,2470.206,13.32,0.016,150.3
2019-12-16T05:49:03,42.805,6.029,-0.002,-0.033,-0.011,107.0,107.0,103.0,13.4,1505.3,325.9,-0.7,1.8,2470.194,13.32,0.033,183.5
2019-12-16T05:52:03,42.805,6.029,0.011,-0.023,-0.02,108.0,107.0,105.0,13.3,1505.3,324.3,-0.7,1.8,2470.229,13.32,0.025,154.4
2019-12-16T05:55:03,42.805,6.029,0.009,-0.041,-0.004,108.0,108.0,104.0,13.3,1505.3,326.3,-0.7,1.8,2470.237,13.32,0.041,167.6
2019-12-16T05:58:03,42.805,6.029,0.002,-0.023,-0.033,110.0,109.0,104.0,13.4,1505.3,324.0,-0.7,1.8,2470.203,13.32,0.023,175.0
2019-12-16T06:04:03,42.805,6.029,-0.016,-0.046,-0.006,107.0,107.0,102.0,13.3,1505.2,324.8,-0.7,1.8,2470.3,13.3,0.048,199.2
2019-12-16T06:07:03,42.805,6.029,-0.004,-0.032,-0.023,106.0,107.0,104.0,13.3,1505.3,323.5,-0.7,1.8,2470.218,13.31,0.032,187.1
2019-12-16T06:10:03,42.805,6.029,-0.013,-0.035,-0.018,107.0,107.0,104.0,13.4,1505.3,323.5,-0.7,1.8,2470.237,13.32,0.037,200.4
2019-12-16T06:13:03,42.805,6.029,-0.024,-0.039,-0.032,107.0,108.0,102.0,13.4,1505.3,322.8,-0.8,1.8,2470.253,13.32,0.045,211.6
2019-12-16T06:16:03,42.805,6.029,-0.005,-0.045,-0.007,107.0,107.0,102.0,13.4,1505.3,323.9,-0.7,1.8,2470.231,13.32,0.045,186.3
2019-12-16T06:19:03,42.805,6.029,0.019,-0.026,-0.021,106.0,108.0,103.0,13.4,1505.3,326.9,-0.7,1.8,2470.225,13.32,0.032,143.8
2019-12-16T06:22:03,42.805,6.029,-0.006,-0.02,-0.029,106.0,107.0,104.0,13.3,1505.3,326.7,-0.7,1.9,2470.24,13.32,0.02,196.7
2019-12-16T06:25:03,42.805,6.029,0.006,-0.031,-0.008,105.0,108.0,104.0,13.4,1505.3,323.2,-0.7,1.8,2470.254,13.32,0.031,169.0
2019-12-16T06:28:03,42.805,6.029,-0.005,-0.045,-0.024,106.0,107.0,103.0,13.3,1505.3,326.2,-0.7,1.8,2470.242,13.32,0.045,186.3
2019-12-16T06:31:03,42.805,6.029,-0.029,-0.039,-0.022,108.0,109.0,104.0,13.4,1505.3,327.7,-0.7,1.8,2470.269,13.32,0.048,216.6
2019-12-16T06:34:03,42.805,6.029,-0.012,-0.02,-0.017,107.0,108.0,104.0,13.4,1505.3,325.8,-0.7,1.8,2470.226,13.32,0.023,211.0
2019-12-16T06:37:03,42.805,6.029,0.006,-0.035,-0.017,106.0,108.0,104.0,13.4,1505.3,326.1,-0.7,1.8,2470.236,13.32,0.035,170.3
2019-12-16T06:40:03,42.805,6.029,-0.008,-0.028,0.009,106.0,107.0,104.0,13.3,1505.3,325.9,-0.7,1.8,2470.263,13.32,0.029,195.9
2019-12-16T06:43:03,42.805,6.029,0.013,-0.014,-0.024,107.0,107.0,103.0,13.4,1505.3,325.4,-0.7,1.8,2470.235,13.32,0.019,137.1
2019-12-16T06:46:03,42.805,6.029,-0.009,-0.023,-0.001,107.0,107.0,104.0,13.3,1505.3,323.6,-0.8,1.9,2470.245,13.32,0.024,201.4
2019-12-16T06:49:03,42.805,6.029,0.016,-0.04,-0.025,108.0,109.0,104.0,13.3,1505.3,326.9,-0.7,1.8,2470.25,13.32,0.043,158.2
2019-12-16T06:52:03,42.805,6.029,-0.003,-0.01,-0.04,108.0,107.0,103.0,13.4,1505.3,327.8,-0.7,1.8,2470.261,13.32,0.01,196.7
2019-12-16T06:55:03,42.805,6.029,-0.013,-0.021,-0.017,107.0,108.0,103.0,13.3,1505.3,325.0,-0.7,1.9,2470.302,13.32,0.024,211.8
2019-12-16T06:58:03,42.805,6.029,0.013,-0.035,-0.013,108.0,109.0,104.0,13.3,1505.3,327.3,-0.7,1.9,2470.3,13.32,0.037,159.6
2019-12-16T07:04:03,42.805,6.029,-0.009,-0.036,-0.02,106.0,108.0,104.0,13.4,1505.2,327.8,-0.7,1.8,2470.33,13.3,0.037,194.0
2019-12-16T07:07:03,42.805,6.029,-0.006,-0.027,0.008,109.0,108.0,105.0,13.4,1505.3,324.2,-0.7,1.8,2470.312,13.31,0.027,192.5
2019-12-16T07:10:03,42.805,6.029,-0.001,-0.022,-0.031,107.0,108.0,103.0,13.4,1505.3,326.2,-0.7,1.8,2470.322,13.32,0.022,182.6
2019-12-16T07:13:03,42.805,6.029,0.001,-0.023,-0.022,108.0,108.0,105.0,13.4,1505.3,328.1,-0.7,1.8,2470.308,13.32,0.023,177.5
2019-12-16T07:16:03,42.805,6.029,0.007,-0.026,-0.012,108.0,108.0,104.0,13.4,1505.3,326.4,-0.7,1.8,2470.288,13.32,0.026,164.9
2019-12-16T07:19:03,42.805,6.029,0.0,-0.037,-0.015,108.0,107.0,103.0,13.4,1505.3,328.1,-0.7,1.8,2470.294,13.32,0.037,180.0
2019-12-16T07:22:03,42.805,6.029,0.009,-0.032,0.007,108.0,108.0,103.0,13.4,1505.3,325.3,-0.7,1.8,2470.324,13.32,0.033,164.3
2019-12-16T07:25:03,42.805,6.029,-0.002,-0.041,-0.013,108.0,107.0,105.0,13.4,1505.3,324.8,-0.7,1.8,2470.302,13.32,0.041,182.8
2019-12-16T07:28:03,42.805,6.029,0.001,-0.012,-0.028,108.0,110.0,105.0,13.4,1505.3,324.8,-0.7,1.8,2470.341,13.32,0.012,175.2
2019-12-16T07:31:03,42.805,6.029,-0.009,-0.048,0.012,108.0,108.0,103.0,13.3,1505.3,328.1,-0.7,1.8,2470.306,13.32,0.048,190.6
2019-12-16T07:34:03,42.805,6.029,-0.018,-0.031,-0.016,109.0,109.0,104.0,13.4,1505.3,326.4,-0.7,1.8,2470.354,13.32,0.035,210.1
2019-12-16T07:37:03,42.805,6.029,0.003,-0.025,-0.032,108.0,107.0,104.0,13.4,1505.3,323.9,-0.7,1.8,2470.364,13.32,0.025,173.2
2019-12-16T07:40:03,42.805,6.029,0.008,-0.014,-0.036,109.0,110.0,104.0,13.4,1505.3,323.7,-0.7,1.8,2470.356,13.32,0.016,150.3
2019-12-16T07:43:03,42.805,6.029,-0.005,-0.024,-0.025,109.0,109.0,105.0,13.3,1505.3,325.9,-0.7,1.8,2470.318,13.32,0.024,191.8
2019-12-16T07:46:03,42.805,6.029,0.001,-0.034,-0.003,110.0,110.0,111.0,13.3,1505.3,325.2,-0.7,1.8,2470.337,13.32,0.034,178.3
2019-12-16T07:49:03,42.805,6.029,-0.01,-0.027,-0.034,109.0,110.0,104.0,13.4,1505.3,326.5,-0.7,1.8,2470.35,13.32,0.028,200.3
2019-12-16T07:52:03,42.805,6.029,-0.005,-0.03,0.003,110.0,109.0,105.0,13.4,1505.3,327.1,-0.7,1.8,2470.341,13.32,0.03,189.5
2019-12-16T07:55:03,42.805,6.029,0.006,-0.028,-0.034,110.0,110.0,104.0,13.4,1505.3,327.3,-0.7,1.8,2470.413,13.32,0.028,167.9
2019-12-16T07:58:03,42.805,6.029,0.02,-0.021,0.017,108.0,110.0,104.0,13.4,1505.3,324.9,-0.7,1.8,2470.333,13.32,0.028,136.4
2019-12-16T08:04:03,42.805,6.029,-0.008,-0.04,-0.008,109.0,110.0,104.0,13.4,1505.2,324.7,-0.7,1.8,2470.416,13.3,0.04,191.3
2019-12-16T08:07:03,42.805,6.029,0.02,-0.011,-0.006,108.0,111.0,106.0,13.3,1505.3,325.4,-0.7,1.8,2470.417,13.31,0.022,118.8
2019-12-16T08:10:03,42.805,6.029,-0.007,-0.022,-0.005,113.0,111.0,105.0,13.4,1505.3,323.1,-0.7,1.8,2470.38,13.32,0.023,197.6
2019-12-16T08:13:03,42.805,6.029,0.001,-0.025,-0.026,110.0,110.0,106.0,13.4,1505.3,326.4,-0.7,1.8,2470.414,13.32,0.025,177.7
2019-12-16T08:16:03,42.805,6.029,0.011,-0.021,-0.012,110.0,110.0,105.0,13.4,1505.3,324.7,-0.7,1.8,2470.399,13.32,0.023,152.4
2019-12-16T08:19:03,42.805,6.029,-0.016,-0.034,-0.031,111.0,110.0,105.0,13.4,1505.3,322.9,-0.7,1.8,2470.401,13.32,0.037,205.2
2019-12-16T08:22:03,42.805,6.029,-0.006,-0.045,-0.014,111.0,109.0,106.0,13.4,1505.3,326.4,-0.8,1.8,2470.379,13.32,0.045,187.6
2019-12-16T08:25:03,42.805,6.029,-0.008,-0.036,-0.012,110.0,111.0,105.0,13.3,1505.3,323.6,-0.7,1.8,2470.42,13.32,0.036,192.5
2019-12-16T08:28:03,42.805,6.029,-0.029,-0.033,-0.026,110.0,110.0,106.0,13.4,1505.3,328.4,-0.7,1.9,2470.375,13.32,0.043,221.3
2019-12-16T08:31:03,42.805,6.029,0.001,-0.018,-0.013,110.0,110.0,105.0,13.3,1505.3,324.4,-0.7,1.8,2470.377,13.32,0.018,176.8
2019-12-16T08:34:03,42.805,6.029,-0.007,-0.034,-0.001,110.0,110.0,106.0,13.3,1505.3,324.1,-0.7,1.8,2470.351,13.32,0.034,191.6
2019-12-16T08:37:03,42.805,6.029,-0.02,-0.016,-0.019,110.0,110.0,106.0,13.3,1505.3,326.5,-0.7,1.8,2470.41,13.32,0.025,231.3
2019-12-16T08:40:03,42.805,6.029,0.0,-0.027,-0.005,112.0,111.0,105.0,13.3,1505.3,327.0,-0.7,1.8,2470.398,13.33,0.026,180.0
2019-12-16T08:43:03,42.805,6.029,-0.001,-0.031,-0.024,111.0,110.0,105.0,13.4,1505.3,327.3,-0.7,1.9,2470.389,13.33,0.031,181.8
2019-12-16T08:46:03,42.805,6.029,-0.007,-0.021,-0.005,111.0,112.0,105.0,13.4,1505.3,327.4,-0.7,1.8,2470.44,13.33,0.022,198.4
2019-12-16T08:49:03,42.805,6.029,-0.012,-0.026,-0.018,112.0,110.0,106.0,13.4,1505.3,326.7,-0.7,1.8,2470.404,13.32,0.028,204.8
2019-12-16T08:52:03,42.805,6.029,-0.014,-0.035,0.011,111.0,110.0,107.0,13.4,1505.3,325.9,-0.7,1.9,2470.429,13.32,0.037,201.8
2019-12-16T08:55:03,42.805,6.029,0.017,-0.018,-0.01,110.0,111.0,104.0,13.4,1505.3,326.7,-0.7,1.8,2470.367,13.32,0.024,136.6
2019-12-16T08:58:03,42.805,6.029,-0.01,-0.011,-0.002,112.0,110.0,106.0,13.3,1505.3,326.1,-0.7,1.8,2470.365,13.32,0.014,222.3
2019-12-16T09:04:03,42.805,6.029,-0.002,-0.03,-0.009,109.0,112.0,106.0,13.4,1505.3,323.7,-0.8,1.8,2470.455,13.31,0.03,183.8
2019-12-16T09:07:03,42.805,6.029,-0.01,-0.027,-0.004,110.0,110.0,105.0,13.3,1505.3,323.7,-0.7,1.8,2470.433,13.31,0.028,200.3
2019-12-16T09:10:03,42.805,6.029,0.014,-0.033,-0.001,111.0,110.0,106.0,13.3,1505.3,324.2,-0.7,1.8,2470.446,13.32,0.035,157.0
2019-12-16T09:13:03,42.805,6.029,-0.001,-0.027,0.006,109.0,110.0,105.0,13.4,1505.3,326.7,-0.7,1.8,2470.499,13.32,0.027,182.1
2019-12-16T09:16:03,42.805,6.029,0.0,-0.022,-0.021,111.0,110.0,104.0,13.3,1505.3,327.6,-0.7,1.8,2470.483,13.32,0.022,180.0
2019-12-16T09:19:03,42.805,6.029,0.01,-0.025,-0.017,110.0,110.0,106.0,13.4,1505.3,324.4,-0.7,1.9,2470.443,13.32,0.026,158.2
2019-12-16T09:22:03,42.805,6.029,0.01,-0.037,-0.001,110.0,110.0,105.0,13.3,1505.3,326.5,-0.7,1.8,2470.362,13.32,0.038,164.9
2019-12-16T09:25:03,42.805,6.029,-0.022,-0.028,-0.03,109.0,109.0,104.0,13.4,1505.3,326.2,-0.7,1.8,2470.418,13.32,0.035,218.2
2019-12-16T09:28:03,42.805,6.029,-0.011,-0.043,-0.038,112.0,111.0,106.0,13.4,1505.3,326.0,-0.7,1.8,2470.415,13.32,0.044,194.3
2019-12-16T09:31:03,42.805,6.029,0.003,-0.026,-0.023,110.0,111.0,106.0,13.4,1505.3,324.8,-0.7,1.8,2470.425,13.32,0.026,173.4
2019-12-16T09:34:03,42.805,6.029,0.018,-0.038,-0.014,111.0,112.0,106.0,13.4,1505.3,326.1,-0.7,1.8,2470.455,13.32,0.042,154.7
2019-12-16T09:37:03,42.805,6.029,-0.012,-0.024,0.007,110.0,110.0,105.0,13.3,1505.3,328.8,-0.7,1.9,2470.464,13.33,0.026,206.6
2019-12-16T09:40:03,42.805,6.029,0.001,-0.03,-0.031,110.0,111.0,105.0,13.4,1505.3,326.2,-0.7,1.8,2470.439,13.33,0.03,178.1
2019-12-16T09:43:03,42.805,6.029,0.003,-0.025,-0.002,111.0,110.0,104.0,13.4,1505.3,326.8,-0.7,1.8,2470.45,13.33,0.025,173.2
2019-12-16T09:46:03,42.805,6.029,-0.011,-0.018,-0.012,110.0,110.0,104.0,13.3,1505.3,327.1,-0.7,1.8,2470.458,13.32,0.021,211.4
2019-12-16T09:49:03,42.805,6.029,-0.007,-0.021,-0.017,111.0,110.0,105.0,13.3,1505.3,323.1,-0.7,1.8,2470.479,13.32,0.022,198.4
2019-12-16T09:52:03,42.805,6.029,0.009,-0.017,-0.012,111.0,110.0,105.0,13.4,1505.3,324.9,-0.7,1.8,2470.436,13.33,0.019,152.1